Regional Weather Roundup
Issued by NWS Sioux Falls, SD

Home | Current Version | Previous Version | Text Only | Print | Product List | Glossary Off
Versions: 1 2 3 4 5 6 7 8 9 10 11 12 13 14 15 16 17 18 19 20 21 22 23 24 25 26 27 28 29 30 31 32 33 34 35 36 37 38 39 40 41 42 43 44 45 46 47 48 49 50

000
ASUS43 KFSD 180810
RWRFSD

WEATHER ROUNDUP FOR SE SOUTH DAKOTA/SW MINNESOTA/NW IOWA
NATIONAL WEATHER SERVICE SIOUX FALLS SD
300 AM CDT THU SEP 18 2014

NOTE: "FAIR" INDICATES FEW OR NO CLOUDS BELOW 12,000 FEET WITH NO
SIGNIFICANT WEATHER AND OR OBSTRUCTIONS TO VISIBILITY.


SDZ038>040-050-052>070-180900-
SOUTHEAST SOUTH DAKOTA

CITY           SKY/WX    TMP DP  RH WIND       PRES   REMARKS
CHAMBERLAIN    CLEAR     55  52  89 E6        29.95S
HURON          CLEAR     53  51  93 E6        29.96F
MADISON        FAIR      50  50 100 NE5       30.00R
MITCHELL       CLEAR     54  53  97 E5        29.96F
SIOUX FALLS    MOCLDY    60  55  83 E5        29.98S
WINNER         FAIR      61  55  81 SE7       29.93S
YANKTON        PTCLDY    55  52  88 E5        29.97S
$$

MNZ071-072-080-081-089-090-097-098-180900-
SOUTHWEST MINNESOTA

CITY           SKY/WX    TMP DP  RH WIND       PRES   REMARKS
FAIRMONT       CLEAR     52  46  82 CALM      30.02S
JACKSON        PTCLDY    55  50  82 CALM      30.02S
LUVERNE        PTCLDY    54  52  94 CALM      30.00S
MARSHALL       CLEAR     50  45  81 CALM      29.99S
MONTEVIDEO     CLEAR     54  54 100 S6        30.01S
PIPESTONE      CLEAR     55  52  88 SE3       30.00S
REDWOOD FALLS  CLEAR     55  52  89 E5        30.00F
TRACY          CLEAR     57  53  86 CALM      30.01S
WINDOM         CLEAR     54  52  94 CALM      30.01F
WORTHINGTON    CLEAR     52  48  87 E3        30.01F
$$

IAZ001>003-012>014-020>022-031-032-NEZ013-014-SDZ071-180900-
NORTHWEST IOWA

CITY           SKY/WX    TMP DP  RH WIND       PRES   REMARKS
CHEROKEE       CLEAR     55  54  98 CALM      30.00S
DENISON        PTCLDY    59  57  94 CALM      29.98F
ESTHERVILLE    MOCLDY    52  50  93 SE6       30.01F
LE MARS        PTCLDY    57  55  94 CALM      29.98F
ORANGE CITY    PTCLDY    59  54  82 S3        29.99F
SHELDON        PTCLDY    55  54  94 E5        29.99S
SIOUX CITY     PTCLDY    59  56  89 SE6       29.98S
SPENCER        CLEAR     50  48  93 E5        30.01F
STORM LAKE     PTCLDY    54  54 100 SE7       30.00F
$$

ABBREVIATIONS USED IN REMARKS
   TC - TEMPERATURE IN CELSIUS
  WCI - WIND CHILL INDEX
   HX - HEAT INDEX
  VSB - VISIBILITY



USA.gov is the U.S. government's official web portal to all federal, state and local government web resources and services.